sat.trackr.live / text

‹ back to catalog

FOSSASAT-2E25

NORAD 68478 · 2026-067BQ

PAYLOAD ACTIVE UNKNOWN

§ Identity

Operator
Country
SPN
Launch date
2026-03-30
Launch site
AFWTR
Launch vehicle
Mass (kg)
RCS (m²)

External: N2YO · Heavens-Above · Gunter

§ Orbital elements

Epoch: 2026-05-24T19:51:56.602944Z

Period
96.51 min
Inclination
97.7587°
Eccentricity
0.0002628
Mean motion
14.92093163 rev/d
Perigee alt
589.6 km
Apogee alt
593.2 km
Semi-major
6,969.5 km
B*
9.6795e-5
RAAN
103.4718°
Arg perigee
40.4467°
Mean anomaly
319.6947°
Rev number
824

§ Raw data

FOSSASAT-2E251 68478U 26067BQ  26144.82773846  .00000928  00000+0  96795-4 0  99942 68478  97.7587 103.4718 0002628  40.4467 319.6947 14.92093163  8246

JSON: /api/v1/satellites/68478 · /tle

For live sub-satellite position, see the globe view (requires WebGL).

§ Visibility from observer

Set your observer location to see the next 7 days of passes ≥ 10°. The values pass through the URL so the page stays shareable.

No JS? Fill the form by hand. The geolocation button needs JavaScript.